ONEWEB-0287 (49077 NORAD) Tracking and Keplerian Element Data

This shows tracking and keplerian element data for the satellite.

Feedback or suggestion? Click here.




ElementValue
Catalog49077
NameONEWEB-0287
Epoch Orbit352
Epoch Day300.58334491
Epoch Year2021
RAAN344.4104
Inclination87.5512
Eccentricity0.0022799
Argument of Perigee66.6604
Mean Anonmoly179.4545
Mean Motion14.32127887
Decay Rate-0.0139592
L11 49077U 21075C 21300.58334491 -.01395920 00000-0 -55312+0 0 9991
L22 49077 87.5512 344.4104 0022799 66.6604 179.4545 14.32127887 3522

Live tracking and technical data element details for ONEWEB-0287 (NORAD 49077). ONEWEB-0287 can be tracked NOW for your location showing map with azimuth and elevation plus other details from your city location.

Track the satellite on the map from your city or location and see movement details for azimuth, elevation, latitude, longitude, range, height, and movement on the map or in text.







IsCatalogInMostPopularTable: catalog: 49077, numindb: 12
Update: records affected: 1



GetName: 49077 ONEWEB-0287

Hit Count: updated at: Thu, 28 Oct 2021 12:09:23 GMT